| time (UTC) | temp F | wind direction | speed MPH | gust MPH | rain 1hr in | rain 24hr in | rain mn in | humidity % | barometer mb |
| 20260902221148 | 93 | 254 | 4.0 | 11.0 | 0.00 | 0.00 | 0.00 | 61 | 1014.0 |
| 20260902220644 | 93 | 216 | 8.0 | 13.0 | 0.00 | 0.00 | 0.00 | 60 | 1013.8 |
| 20260902220139 | 94 | 221 | 4.0 | 12.0 | 0.00 | 0.00 | 0.00 | 61 | 1013.9 |
| 20260902215635 | 94 | 208 | 7.0 | 10.0 | 0.00 | 0.00 | 0.00 | 59 | 1014.0 |
| 20260902215131 | 93 | 217 | 4.0 | 10.0 | 0.00 | 0.00 | 0.00 | 59 | 1014.1 |
| 20260902214625 | 93 | 239 | 2.0 | 15.0 | 0.00 | 0.00 | 0.00 | 58 | 1014.2 |
| 20260902214124 | 94 | 263 | 2.0 | 5.0 | 0.00 | 0.00 | 0.00 | 57 | 1014.2 |
| 20260902213620 | 94 | 249 | 4.0 | 11.0 | 0.00 | 0.00 | 0.00 | 58 | 1014.4 |
| 20260902213119 | 95 | 219 | 3.0 | 10.0 | 0.00 | 0.00 | 0.00 | 59 | 1014.2 |
| 20260902212615 | 95 | 246 | 1.0 | 7.0 | 0.00 | 0.00 | 0.00 | 59 | 1014.3 |
| 20260902212111 | 96 | 227 | 5.0 | 7.0 | 0.00 | 0.00 | 0.00 | 56 | 1014.2 |
| 20260902211607 | 96 | 229 | 5.0 | 10.0 | 0.00 | 0.00 | 0.00 | 57 | 1014.2 |
| 20260902211102 | 96 | 206 | 4.0 | 13.0 | 0.00 | 0.00 | 0.00 | 55 | 1014.2 |
| 20260902210601 | 96 | 250 | 4.0 | 7.0 | 0.00 | 0.00 | 0.00 | 56 | 1014.2 |
| 20260902210056 | 96 | 211 | 8.0 | 16.0 | 0.00 | 0.00 | 0.00 | 56 | 1014.2 |
| 20260902205555 | 95 | 208 | 4.0 | 12.0 | 0.00 | 0.00 | 0.00 | 57 | 1014.2 |
| 20260902205051 | 95 | 219 | 5.0 | 14.0 | 0.00 | 0.00 | 0.00 | 57 | 1014.2 |
| 20260902204550 | 97 | 216 | 4.0 | 9.0 | 0.00 | 0.00 | 0.00 | 54 | 1014.1 |
| 20260902204046 | 97 | 220 | 4.0 | 15.0 | 0.00 | 0.00 | 0.00 | 53 | 1014.2 |
| 20260902203541 | 96 | 213 | 5.0 | 11.0 | 0.00 | 0.00 | 0.00 | 55 | 1014.5 |
| 20260902203040 | 96 | 240 | 5.0 | 11.0 | 0.00 | 0.00 | 0.00 | 57 | 1014.2 |
| 20260902202536 | 95 | 208 | 0.0 | 14.0 | 0.00 | 0.00 | 0.00 | 58 | 1014.3 |
| 20260902202032 | 95 | 212 | 9.0 | 10.0 | 0.00 | 0.00 | 0.00 | 57 | 1014.4 |
| 20260902201527 | 96 | 213 | 3.0 | 10.0 | 0.00 | 0.00 | 0.00 | 56 | 1014.6 |
| 20260902201021 | 96 | 258 | 8.0 | 16.0 | 0.00 | 0.00 | 0.00 | 53 | 1014.6 |
| 20260902200516 | 96 | 220 | 5.0 | 10.0 | 0.00 | 0.00 | 0.00 | 57 | 1014.6 |
| 20260902200013 | 95 | 191 | 4.0 | 7.0 | 0.00 | 0.00 | 0.00 | 57 | 1014.6 |
| 20260902195508 | 95 | 230 | 6.0 | 10.0 | 0.00 | 0.00 | 0.00 | 56 | 1014.5 |
| 20260902195007 | 95 | 225 | 2.0 | 11.0 | 0.00 | 0.00 | 0.00 | 54 | 1014.3 |
| 20260902194501 | 96 | 224 | 7.0 | 12.0 | 0.00 | 0.00 | 0.00 | 56 | 1014.6 |
| 20260902193956 | 96 | 207 | 5.0 | 8.0 | 0.00 | 0.00 | 0.00 | 53 | 1014.6 |
| 20260902193452 | 96 | 219 | 6.0 | 10.0 | 0.00 | 0.00 | 0.00 | 57 | 1014.8 |
| 20260902192950 | 96 | 180 | 5.0 | 8.0 | 0.00 | 0.00 | 0.00 | 56 | 1014.8 |
| 20260902192450 | 96 | 211 | 8.0 | 14.0 | 0.00 | 0.00 | 0.00 | 56 | 1014.8 |
| 20260902191949 | 95 | 249 | 2.0 | 9.0 | 0.00 | 0.00 | 0.00 | 58 | 1014.8 |
| 20260902191444 | 96 | 263 | 4.0 | 8.0 | 0.00 | 0.00 | 0.00 | 57 | 1014.8 |
| 20260902190939 | 95 | 210 | 6.0 | 9.0 | 0.00 | 0.00 | 0.00 | 55 | 1014.9 |
| 20260902190435 | 95 | 232 | 3.0 | 9.0 | 0.00 | 0.00 | 0.00 | 58 | 1014.9 |
| 20260902185930 | 95 | 225 | 3.0 | 10.0 | 0.00 | 0.00 | 0.00 | 58 | 1015.0 |
| 20260902185426 | 95 | 236 | 10.0 | 13.0 | 0.00 | 0.00 | 0.00 | 58 | 1015.2 |
| 20260902184921 | 96 | 208 | 11.0 | 11.0 | 0.00 | 0.00 | 0.00 | 56 | 1015.2 |
| 20260902184416 | 95 | 240 | 4.0 | 9.0 | 0.00 | 0.00 | 0.00 | 57 | 1015.1 |
| 20260902183912 | 95 | 220 | 9.0 | 14.0 | 0.00 | 0.00 | 0.00 | 57 | 1015.2 |
| 20260902183408 | 96 | 248 | 2.0 | 6.0 | 0.00 | 0.00 | 0.00 | 57 | 1015.0 |
| 20260902182904 | 95 | 295 | 1.0 | 9.0 | 0.00 | 0.00 | 0.00 | 58 | 1015.0 |
| 20260902182400 | 94 | 248 | 3.0 | 7.0 | 0.00 | 0.00 | 0.00 | 57 | 1015.2 |
| 20260902181856 | 93 | 207 | 11.0 | 15.0 | 0.00 | 0.00 | 0.00 | 59 | 1015.2 |
| 20260902181352 | 94 | 258 | 6.0 | 7.0 | 0.00 | 0.00 | 0.00 | 60 | 1015.3 |
| 20260902180851 | 93 | 186 | 5.0 | 7.0 | 0.00 | 0.00 | 0.00 | 61 | 1015.2 |
| 20260902180347 | 93 | 204 | 5.0 | 9.0 | 0.00 | 0.00 | 0.00 | 61 | 1015.2 |
| 20260902175842 | 93 | 222 | 7.0 | 15.0 | 0.00 | 0.00 | 0.00 | 61 | 1015.4 |
| 20260902175337 | 93 | 206 | 7.0 | 14.0 | 0.00 | 0.00 | 0.00 | 60 | 1015.3 |
| 20260902174832 | 94 | 265 | 4.0 | 9.0 | 0.00 | 0.00 | 0.00 | 58 | 1015.2 |
| 20260902174329 | 93 | 284 | 5.0 | 9.0 | 0.00 | 0.00 | 0.00 | 59 | 1015.4 |
| 20260902173819 | 93 | 226 | 5.0 | 8.0 | 0.00 | 0.00 | 0.00 | 63 | 1015.3 |
| 20260902173319 | 92 | 318 | 2.0 | 9.0 | 0.00 | 0.00 | 0.00 | 62 | 1015.6 |
| 20260902172813 | 91 | 265 | 5.0 | 9.0 | 0.00 | 0.00 | 0.00 | 64 | 1015.3 |
| 20260902172308 | 91 | 209 | 9.0 | 14.0 | 0.00 | 0.00 | 0.00 | 63 | 1015.4 |
| 20260902171803 | 91 | 228 | 2.0 | 11.0 | 0.00 | 0.00 | 0.00 | 64 | 1015.5 |
| 20260902171257 | 92 | 229 | 2.0 | 5.0 | 0.00 | 0.00 | 0.00 | 64 | 1015.8 |
| 20260902170754 | 92 | 211 | 8.0 | 9.0 | 0.00 | 0.00 | 0.00 | 63 | 1015.7 |
| 20260902170249 | 92 | 233 | 4.0 | 6.0 | 0.00 | 0.00 | 0.00 | 64 | 1015.6 |
| 20260902165744 | 92 | 244 | 2.0 | 4.0 | 0.00 | 0.00 | 0.00 | 65 | 1015.7 |
| 20260902165244 | 91 | 222 | 4.0 | 7.0 | 0.00 | 0.00 | 0.00 | 64 | 1015.7 |
| 20260902164738 | 92 | 233 | 5.0 | 7.0 | 0.00 | 0.00 | 0.00 | 64 | 1015.7 |
| 20260902164233 | 91 | 217 | 5.0 | 8.0 | 0.00 | 0.00 | 0.00 | 65 | 1015.6 |
| 20260902163728 | 91 | 236 | 3.0 | 8.0 | 0.00 | 0.00 | 0.00 | 65 | 1015.9 |
| 20260902163227 | 90 | 227 | 3.0 | 8.0 | 0.00 | 0.00 | 0.00 | 64 | 1015.9 |
| 20260902162726 | 90 | 248 | 6.0 | 10.0 | 0.00 | 0.00 | 0.00 | 64 | 1015.9 |
| 20260902162221 | 91 | 237 | 4.0 | 6.0 | 0.00 | 0.00 | 0.00 | 64 | 1015.9 |
| 20260902161716 | 90 | 252 | 1.0 | 7.0 | 0.00 | 0.00 | 0.00 | 66 | 1015.8 |
| 20260902161212 | 89 | 296 | 2.0 | 11.0 | 0.00 | 0.00 | 0.00 | 66 | 1015.8 |
| 20260902160709 | 89 | 218 | 2.0 | 9.0 | 0.00 | 0.00 | 0.00 | 67 | 1015.8 |
| 20260902160202 | 89 | 295 | 2.0 | 9.0 | 0.00 | 0.00 | 0.00 | 68 | 1016.0 |
| 20260902155701 | 89 | 214 | 1.0 | 7.0 | 0.00 | 0.00 | 0.00 | 69 | 1016.1 |
| 20260902155159 | 88 | 275 | 3.0 | 6.0 | 0.00 | 0.00 | 0.00 | 70 | 1016.0 |
| 20260902154654 | 88 | 228 | 4.0 | 9.0 | 0.00 | 0.00 | 0.00 | 70 | 1015.9 |
| 20260902154148 | 88 | 290 | 0.0 | 7.0 | 0.00 | 0.00 | 0.00 | 70 | 1016.3 |
| 20260902153643 | 88 | 210 | 7.0 | 10.0 | 0.00 | 0.00 | 0.00 | 69 | 1015.9 |
| 20260902153138 | 87 | 245 | 4.0 | 7.0 | 0.00 | 0.00 | 0.00 | 70 | 1016.0 |
| 20260902152634 | 86 | 203 | 9.0 | 9.0 | 0.00 | 0.00 | 0.00 | 72 | 1015.9 |
| 20260902152129 | 87 | 201 | 3.0 | 11.0 | 0.00 | 0.00 | 0.00 | 71 | 1015.8 |
| 20260902151625 | 86 | 192 | 4.0 | 10.0 | 0.00 | 0.00 | 0.00 | 72 | 1015.7 |
| 20260902151119 | 87 | 219 | 4.0 | 6.0 | 0.00 | 0.00 | 0.00 | 71 | 1015.7 |
| 20260902150615 | 87 | 209 | 4.0 | 9.0 | 0.00 | 0.00 | 0.00 | 72 | 1015.8 |
| 20260902150109 | 87 | 268 | 1.0 | 5.0 | 0.00 | 0.00 | 0.00 | 73 | 1015.4 |
| 20260902145604 | 85 | 215 | 2.0 | 11.0 | 0.00 | 0.00 | 0.00 | 75 | 1015.5 |
| 20260902145103 | 85 | 238 | 3.0 | 10.0 | 0.00 | 0.00 | 0.00 | 74 | 1015.6 |
| 20260902144600 | 85 | 237 | 3.0 | 7.0 | 0.00 | 0.00 | 0.00 | 75 | 1015.8 |
| 20260902144055 | 84 | 204 | 4.0 | 6.0 | 0.00 | 0.00 | 0.00 | 77 | 1015.8 |
| 20260902143550 | 84 | 219 | 3.0 | 7.0 | 0.00 | 0.00 | 0.00 | 78 | 1015.8 |
| 20260902143046 | 83 | 256 | 2.0 | 6.0 | 0.00 | 0.00 | 0.00 | 78 | 1015.7 |
| 20260902142543 | 83 | 242 | 3.0 | 7.0 | 0.00 | 0.00 | 0.00 | 78 | 1015.7 |
| 20260902142036 | 83 | 233 | 3.0 | 8.0 | 0.00 | 0.00 | 0.00 | 78 | 1015.8 |
| 20260902141536 | 83 | 207 | 11.0 | 11.0 | 0.00 | 0.00 | 0.00 | 76 | 1015.7 |
| 20260902141031 | 84 | 214 | 4.0 | 7.0 | 0.00 | 0.00 | 0.00 | 76 | 1015.7 |
| 20260902140526 | 83 | 208 | 4.0 | 8.0 | 0.00 | 0.00 | 0.00 | 77 | 1015.6 |
| 20260902140022 | 83 | 206 | 11.0 | 15.0 | 0.00 | 0.00 | 0.00 | 76 | 1016.0 |
| 20260902135520 | 83 | 229 | 0.0 | 5.0 | 0.00 | 0.00 | 0.00 | 77 | 1016.1 |
| 20260902135016 | 82 | 264 | 3.0 | 7.0 | 0.00 | 0.00 | 0.00 | 78 | 1016.0 |
| 20260902134511 | 82 | 213 | 4.0 | 8.0 | 0.00 | 0.00 | 0.00 | 79 | 1015.9 |
| 20260902134006 | 81 | 202 | 5.0 | 7.0 | 0.00 | 0.00 | 0.00 | 78 | 1016.1 |
| 20260902133501 | 81 | 223 | 2.0 | 7.0 | 0.00 | 0.00 | 0.00 | 79 | 1015.9 |
| 20260902132955 | 81 | 225 | 3.0 | 7.0 | 0.00 | 0.00 | 0.00 | 79 | 1016.2 |
| 20260902132450 | 80 | 227 | 2.0 | 7.0 | 0.00 | 0.00 | 0.00 | 80 | 1016.3 |
| 20260902131945 | 80 | 220 | 4.0 | 7.0 | 0.00 | 0.00 | 0.00 | 81 | 1016.1 |
| 20260902131442 | 80 | 185 | 2.0 | 6.0 | 0.00 | 0.00 | 0.00 | 81 | 1016.1 |
| 20260902130941 | 79 | 210 | 4.0 | 7.0 | 0.00 | 0.00 | 0.00 | 82 | 1016.2 |
| 20260902130438 | 78 | 208 | 3.0 | 6.0 | 0.00 | 0.00 | 0.00 | 83 | 1016.0 |
| 20260902125937 | 78 | 170 | 3.0 | 5.0 | 0.00 | 0.00 | 0.00 | 84 | 1016.0 |
| 20260902125434 | 77 | 201 | 2.0 | 6.0 | 0.00 | 0.00 | 0.00 | 84 | 1016.1 |
| 20260902124929 | 77 | 214 | 3.0 | 7.0 | 0.00 | 0.00 | 0.00 | 84 | 1016.2 |
| 20260902124425 | 77 | 221 | 5.0 | 6.0 | 0.00 | 0.00 | 0.00 | 84 | 1016.1 |
| 20260902123920 | 77 | 214 | 4.0 | 6.0 | 0.00 | 0.00 | 0.00 | 84 | 1016.3 |
| 20260902123417 | 77 | 205 | 2.0 | 6.0 | 0.00 | 0.00 | 0.00 | 85 | 1016.2 |
| 20260902122914 | 77 | 193 | 3.0 | 7.0 | 0.00 | 0.00 | 0.00 | 85 | 1016.2 |
| 20260902122411 | 77 | 194 | 4.0 | 6.0 | 0.00 | 0.00 | 0.00 | 85 | 1016.4 |
| 20260902121906 | 77 | 199 | 4.0 | 6.0 | 0.00 | 0.00 | 0.00 | 85 | 1016.1 |
| 20260902121401 | 77 | 207 | 2.0 | 4.0 | 0.00 | 0.00 | 0.00 | 85 | 1016.1 |
| 20260902120856 | 77 | 259 | 2.0 | 4.0 | 0.00 | 0.00 | 0.00 | 85 | 1015.9 |
| 20260902120352 | 76 | 200 | 3.0 | 5.0 | 0.00 | 0.00 | 0.00 | 86 | 1016.0 |
| 20260902115846 | 76 | 208 | 2.0 | 3.0 | 0.00 | 0.00 | 0.00 | 86 | 1016.0 |
| 20260902115343 | 76 | 180 | 2.0 | 4.0 | 0.00 | 0.00 | 0.00 | 86 | 1016.0 |
| 20260902114839 | 76 | 201 | 0.0 | 3.0 | 0.00 | 0.00 | 0.00 | 86 | 1016.1 |
| 20260902114334 | 76 | 260 | 2.0 | 4.0 | 0.00 | 0.00 | 0.00 | 87 | 1016.1 |
| 20260902113834 | 76 | 245 | 0.0 | 2.0 | 0.00 | 0.00 | 0.00 | 87 | 1016.1 |
| 20260902113330 | 76 | 197 | 2.0 | 6.0 | 0.00 | 0.00 | 0.00 | 86 | 1016.1 |
| 20260902112829 | 76 | 208 | 3.0 | 5.0 | 0.00 | 0.00 | 0.00 | 87 | 1016.1 |
| 20260902112326 | 75 | 256 | 2.0 | 5.0 | 0.00 | 0.00 | 0.00 | 87 | 1016.1 |
| 20260902111821 | 75 | 249 | 2.0 | 4.0 | 0.00 | 0.00 | 0.00 | 87 | 1016.1 |
| 20260902111317 | 76 | 219 | 3.0 | 5.0 | 0.00 | 0.00 | 0.00 | 86 | 1016.1 |
| 20260902110813 | 76 | 186 | 3.0 | 5.0 | 0.00 | 0.00 | 0.00 | 86 | 1016.1 |
| 20260902110309 | 76 | 241 | 1.0 | 3.0 | 0.00 | 0.00 | 0.00 | 87 | 1016.2 |
| 20260902105808 | 76 | 228 | 2.0 | 5.0 | 0.00 | 0.00 | 0.00 | 86 | 1015.8 |
| 20260902105306 | 76 | 211 | 2.0 | 5.0 | 0.00 | 0.00 | 0.00 | 86 | 1015.8 |
| 20260902104758 | 76 | 196 | 3.0 | 5.0 | 0.00 | 0.00 | 0.00 | 87 | 1016.1 |
| 20260902104255 | 76 | 210 | 2.0 | 6.0 | 0.00 | 0.00 | 0.00 | 87 | 1015.8 |
| 20260902103749 | 76 | 215 | 2.0 | 4.0 | 0.00 | 0.00 | 0.00 | 86 | 1016.1 |
| 20260902103249 | 76 | 215 | 1.0 | 5.0 | 0.00 | 0.00 | 0.00 | 86 | 1015.9 |
| 20260902102744 | 76 | 216 | 1.0 | 5.0 | 0.00 | 0.00 | 0.00 | 86 | 1015.9 |
| 20260902102242 | 76 | 221 | 2.0 | 4.0 | 0.00 | 0.00 | 0.00 | 86 | 1015.9 |
| 20260902101737 | 77 | 223 | 3.0 | 5.0 | 0.00 | 0.00 | 0.00 | 85 | 1015.9 |
| 20260902101232 | 77 | 228 | 2.0 | 6.0 | 0.00 | 0.00 | 0.00 | 85 | 1015.8 |
| 20260902100731 | 76 | 202 | 2.0 | 7.0 | 0.00 | 0.00 | 0.00 | 86 | 1016.0 |
| 20260902100225 | 76 | 217 | 3.0 | 3.0 | 0.00 | 0.00 | 0.00 | 86 | 1015.8 |
| 20260902095720 | 76 | 256 | 1.0 | 5.0 | 0.00 | 0.00 | 0.00 | 86 | 1015.9 |
| 20260902095214 | 76 | 212 | 2.0 | 5.0 | 0.00 | 0.00 | 0.00 | 86 | 1015.8 |
| 20260902094708 | 76 | 231 | 1.0 | 5.0 | 0.00 | 0.00 | 0.00 | 86 | 1015.7 |
| 20260902094206 | 76 | 213 | 2.0 | 5.0 | 0.00 | 0.00 | 0.00 | 86 | 1016.0 |
| 20260902093704 | 77 | 184 | 2.0 | 4.0 | 0.00 | 0.00 | 0.00 | 86 | 1015.7 |
| 20260902093159 | 77 | 175 | 1.0 | 4.0 | 0.00 | 0.00 | 0.00 | 86 | 1015.8 |
| 20260902092654 | 77 | 166 | 3.0 | 6.0 | 0.00 | 0.00 | 0.00 | 85 | 1015.6 |
| 20260902092148 | 77 | 194 | 5.0 | 8.0 | 0.00 | 0.00 | 0.00 | 85 | 1015.7 |
| 20260902091643 | 77 | 191 | 3.0 | 6.0 | 0.00 | 0.00 | 0.00 | 86 | 1015.7 |
| 20260902091140 | 77 | 167 | 0.0 | 5.0 | 0.00 | 0.00 | 0.00 | 86 | 1015.6 |
| 20260902090636 | 77 | 190 | 2.0 | 5.0 | 0.00 | 0.00 | 0.00 | 86 | 1015.7 |
| 20260902090135 | 77 | 203 | 2.0 | 8.0 | 0.00 | 0.00 | 0.00 | 86 | 1015.9 |
| 20260902085630 | 77 | 211 | 3.0 | 5.0 | 0.00 | 0.00 | 0.00 | 86 | 1015.8 |
| 20260902085125 | 77 | 211 | 2.0 | 5.0 | 0.00 | 0.00 | 0.00 | 86 | 1015.8 |
| 20260902084621 | 77 | 212 | 3.0 | 5.0 | 0.00 | 0.00 | 0.00 | 86 | 1015.7 |
| 20260902084116 | 77 | 210 | 2.0 | 4.0 | 0.00 | 0.00 | 0.00 | 85 | 1015.6 |
| 20260902083612 | 78 | 187 | 3.0 | 4.0 | 0.00 | 0.00 | 0.00 | 85 | 1015.7 |
| 20260902083111 | 78 | 205 | 3.0 | 4.0 | 0.00 | 0.00 | 0.00 | 85 | 1015.8 |
| 20260902082607 | 78 | 223 | 1.0 | 4.0 | 0.00 | 0.00 | 0.00 | 85 | 1015.7 |
| 20260902082103 | 78 | 186 | 2.0 | 4.0 | 0.00 | 0.00 | 0.00 | 85 | 1015.5 |
| 20260902081600 | 78 | 208 | 3.0 | 4.0 | 0.00 | 0.00 | 0.00 | 84 | 1015.6 |
| 20260902081059 | 78 | 197 | 3.0 | 6.0 | 0.00 | 0.00 | 0.00 | 84 | 1015.5 |
| 20260902080554 | 78 | 209 | 3.0 | 5.0 | 0.00 | 0.00 | 0.00 | 84 | 1015.4 |
| 20260902080051 | 78 | 197 | 3.0 | 7.0 | 0.00 | 0.00 | 0.00 | 83 | 1015.7 |
| 20260902075550 | 78 | 214 | 4.0 | 6.0 | 0.00 | 0.00 | 0.00 | 84 | 1015.6 |
| 20260902075046 | 79 | 216 | 4.0 | 7.0 | 0.00 | 0.00 | 0.00 | 83 | 1015.5 |
| 20260902074541 | 79 | 227 | 3.0 | 6.0 | 0.00 | 0.00 | 0.00 | 83 | 1015.5 |
| 20260902074037 | 79 | 205 | 5.0 | 8.0 | 0.00 | 0.00 | 0.00 | 83 | 1015.6 |
| 20260902073532 | 78 | 215 | 7.0 | 9.0 | 0.00 | 0.00 | 0.00 | 84 | 1015.3 |
| 20260902073029 | 78 | 200 | 3.0 | 5.0 | 0.00 | 0.00 | 0.00 | 84 | 1015.2 |
| 20260902072524 | 79 | 196 | 2.0 | 5.0 | 0.00 | 0.00 | 0.00 | 84 | 1015.4 |
| 20260902072021 | 79 | 170 | 2.0 | 4.0 | 0.00 | 0.00 | 0.00 | 84 | 1015.4 |
| 20260902071519 | 79 | 225 | 3.0 | 5.0 | 0.00 | 0.00 | 0.00 | 83 | 1015.3 |
| 20260902071016 | 79 | 176 | 3.0 | 5.0 | 0.00 | 0.00 | 0.00 | 83 | 1015.5 |
| 20260902070511 | 79 | 182 | 5.0 | 6.0 | 0.00 | 0.00 | 0.00 | 83 | 1015.6 |
| 20260902070007 | 79 | 181 | 5.0 | 6.0 | 0.00 | 0.00 | 0.00 | 83 | 1015.5 |
| 20260902065500 | 79 | 206 | 4.0 | 8.0 | 0.00 | 0.00 | 0.00 | 83 | 1015.4 |
| 20260902064955 | 79 | 205 | 5.0 | 8.0 | 0.00 | 0.00 | 0.00 | 83 | 1015.7 |
| 20260902064451 | 79 | 209 | 3.0 | 7.0 | 0.00 | 0.00 | 0.00 | 83 | 1015.5 |
| 20260902063946 | 79 | 198 | 7.0 | 8.0 | 0.00 | 0.00 | 0.00 | 83 | 1015.4 |
| 20260902063445 | 79 | 208 | 6.0 | 10.0 | 0.00 | 0.00 | 0.00 | 83 | 1015.5 |
| 20260902062941 | 79 | 202 | 10.0 | 10.0 | 0.00 | 0.00 | 0.00 | 83 | 1015.5 |
| 20260902062440 | 79 | 233 | 2.0 | 8.0 | 0.00 | 0.00 | 0.00 | 83 | 1015.5 |
| 20260902061935 | 79 | 178 | 3.0 | 8.0 | 0.00 | 0.00 | 0.00 | 84 | 1015.5 |
| 20260902061430 | 79 | 205 | 5.0 | 9.0 | 0.00 | 0.00 | 0.00 | 83 | 1015.4 |
| 20260902060926 | 79 | 201 | 6.0 | 8.0 | 0.00 | 0.00 | 0.00 | 83 | 1015.3 |
| 20260902060422 | 79 | 198 | 3.0 | 6.0 | 0.00 | 0.00 | 0.00 | 83 | 1015.5 |
| 20260902055918 | 80 | 204 | 3.0 | 11.0 | 0.00 | 0.00 | 0.00 | 82 | 1015.6 |
| 20260902055414 | 80 | 209 | 3.0 | 6.0 | 0.00 | 0.00 | 0.00 | 82 | 1015.4 |
| 20260902054909 | 80 | 214 | 4.0 | 6.0 | 0.00 | 0.00 | 0.00 | 82 | 1015.5 |
| 20260902054404 | 80 | 204 | 3.0 | 7.0 | 0.00 | 0.00 | 0.00 | 82 | 1015.5 |
| 20260902053859 | 80 | 186 | 4.0 | 6.0 | 0.00 | 0.00 | 0.00 | 82 | 1015.5 |
| 20260902053354 | 80 | 215 | 5.0 | 8.0 | 0.00 | 0.00 | 0.00 | 82 | 1015.5 |
| 20260902052853 | 80 | 215 | 3.0 | 7.0 | 0.00 | 0.00 | 0.00 | 82 | 1015.5 |
| 20260902052349 | 80 | 205 | 4.0 | 7.0 | 0.00 | 0.00 | 0.00 | 83 | 1015.7 |
| 20260902051843 | 80 | 203 | 3.0 | 6.0 | 0.00 | 0.00 | 0.00 | 83 | 1015.6 |
| 20260902051337 | 80 | 205 | 4.0 | 6.0 | 0.00 | 0.00 | 0.00 | 83 | 1015.5 |
| 20260902050832 | 80 | 192 | 2.0 | 6.0 | 0.00 | 0.00 | 0.00 | 84 | 1015.7 |
| 20260902050331 | 80 | 235 | 2.0 | 7.0 | 0.00 | 0.00 | 0.00 | 84 | 1015.7 |
| 20260902045826 | 80 | 213 | 3.0 | 6.0 | 0.00 | 0.05 | 0.05 | 85 | 1015.5 |
| 20260902045322 | 80 | 210 | 4.0 | 6.0 | 0.00 | 0.05 | 0.05 | 85 | 1015.4 |
| 20260902044819 | 80 | 212 | 4.0 | 7.0 | 0.00 | 0.05 | 0.05 | 85 | 1015.5 |
| 20260902044314 | 80 | 205 | 3.0 | 6.0 | 0.00 | 0.05 | 0.05 | 85 | 1015.8 |
| 20260902043808 | 80 | 199 | 4.0 | 6.0 | 0.00 | 0.05 | 0.05 | 85 | 1015.9 |
| 20260902043304 | 80 | 202 | 3.0 | 7.0 | 0.00 | 0.05 | 0.05 | 85 | 1015.8 |
| 20260902042803 | 80 | 182 | 5.0 | 9.0 | 0.00 | 0.05 | 0.05 | 85 | 1015.8 |
| 20260902042258 | 80 | 172 | 4.0 | 6.0 | 0.00 | 0.05 | 0.05 | 85 | 1015.8 |
| 20260902041753 | 80 | 173 | 2.0 | 7.0 | 0.00 | 0.05 | 0.05 | 85 | 1015.8 |
| 20260902041253 | 80 | 225 | 2.0 | 8.0 | 0.00 | 0.05 | 0.05 | 85 | 1015.6 |
| 20260902040752 | 80 | 203 | 5.0 | 7.0 | 0.00 | 0.05 | 0.05 | 85 | 1015.6 |
| 20260902040248 | 80 | 196 | 3.0 | 6.0 | 0.00 | 0.05 | 0.05 | 85 | 1015.7 |
| 20260902035746 | 80 | 190 | 3.0 | 5.0 | 0.00 | 0.05 | 0.05 | 85 | 1015.7 |
| 20260902035242 | 80 | 156 | 3.0 | 4.0 | 0.00 | 0.05 | 0.05 | 84 | 1015.7 |
| 20260902034741 | 81 | 212 | 2.0 | 4.0 | 0.00 | 0.05 | 0.05 | 84 | 1015.7 |
| 20260902034236 | 81 | 189 | 3.0 | 4.0 | 0.00 | 0.05 | 0.05 | 84 | 1015.7 |
| 20260902033734 | 81 | 212 | 2.0 | 5.0 | 0.00 | 0.05 | 0.05 | 84 | 1015.8 |
| 20260902033229 | 81 | 183 | 3.0 | 5.0 | 0.00 | 0.05 | 0.05 | 84 | 1015.6 |
| 20260902032727 | 81 | 219 | 6.0 | 7.0 | 0.00 | 0.05 | 0.05 | 84 | 1015.6 |
| 20260902032223 | 81 | 216 | 4.0 | 5.0 | 0.00 | 0.05 | 0.05 | 83 | 1015.7 |
| 20260902031723 | 81 | 212 | 4.0 | 5.0 | 0.00 | 0.05 | 0.05 | 83 | 1016.0 |
| 20260902031218 | 81 | 224 | 0.0 | 2.0 | 0.00 | 0.05 | 0.05 | 83 | 1015.7 |
| 20260902030714 | 82 | 235 | 2.0 | 4.0 | 0.00 | 0.05 | 0.05 | 82 | 1015.9 |
| 20260902030214 | 82 | 238 | 2.0 | 4.0 | 0.00 | 0.05 | 0.05 | 81 | 1015.7 |
| 20260902025713 | 82 | 194 | 2.0 | 6.0 | 0.00 | 0.05 | 0.05 | 80 | 1015.7 |
| 20260902025209 | 83 | 212 | 2.0 | 5.0 | 0.00 | 0.05 | 0.05 | 80 | 1015.6 |
| 20260902024703 | 83 | 201 | 3.0 | 6.0 | 0.00 | 0.05 | 0.05 | 80 | 1015.7 |
| 20260902024158 | 83 | 202 | 1.0 | 5.0 | 0.00 | 0.05 | 0.05 | 80 | 1015.4 |
| 20260902023654 | 83 | 216 | 4.0 | 8.0 | 0.00 | 0.05 | 0.05 | 79 | 1015.5 |
| 20260902023149 | 83 | 204 | 5.0 | 7.0 | 0.00 | 0.05 | 0.05 | 79 | 1015.5 |
| 20260902022648 | 83 | 217 | 5.0 | 7.0 | 0.00 | 0.05 | 0.05 | 79 | 1015.6 |
| 20260902022144 | 83 | 201 | 4.0 | 5.0 | 0.00 | 0.05 | 0.05 | 79 | 1015.6 |
| 20260902021640 | 84 | 207 | 3.0 | 7.0 | 0.00 | 0.05 | 0.05 | 78 | 1015.8 |
| 20260902021135 | 84 | 228 | 2.0 | 10.0 | 0.00 | 0.05 | 0.05 | 78 | 1015.6 |
| 20260902020631 | 84 | 211 | 5.0 | 7.0 | 0.00 | 0.05 | 0.05 | 78 | 1015.8 |
| 20260902020126 | 84 | 212 | 1.0 | 7.0 | 0.00 | 0.05 | 0.05 | 78 | 1015.5 |
| 20260902015622 | 84 | 233 | 3.0 | 6.0 | 0.00 | 0.05 | 0.05 | 78 | 1015.4 |
| 20260902015118 | 84 | 218 | 3.0 | 7.0 | 0.00 | 0.05 | 0.05 | 77 | 1015.4 |
| 20260902014613 | 84 | 214 | 3.0 | 8.0 | 0.00 | 0.05 | 0.05 | 77 | 1015.4 |
| 20260902014109 | 84 | 207 | 4.0 | 5.0 | 0.00 | 0.05 | 0.05 | 78 | 1015.3 |
| 20260902013608 | 84 | 238 | 2.0 | 8.0 | 0.00 | 0.05 | 0.05 | 78 | 1015.3 |
| 20260902013104 | 84 | 206 | 5.0 | 6.0 | 0.00 | 0.05 | 0.05 | 79 | 1015.2 |
| 20260902012559 | 84 | 208 | 3.0 | 6.0 | 0.00 | 0.05 | 0.05 | 80 | 1015.2 |
| 20260902012054 | 84 | 189 | 3.0 | 7.0 | 0.00 | 0.05 | 0.05 | 80 | 1015.2 |
| 20260902011550 | 84 | 234 | 2.0 | 4.0 | 0.00 | 0.05 | 0.05 | 80 | 1015.1 |
| 20260902011049 | 85 | 211 | 3.0 | 5.0 | 0.00 | 0.05 | 0.05 | 79 | 1015.0 |
| 20260902010549 | 85 | 214 | 2.0 | 5.0 | 0.00 | 0.05 | 0.05 | 79 | 1014.8 |
| 20260902010045 | 85 | 197 | 3.0 | 6.0 | 0.00 | 0.05 | 0.05 | 79 | 1014.7 |
| 20260902005542 | 85 | 197 | 3.0 | 4.0 | 0.00 | 0.05 | 0.05 | 79 | 1014.6 |
| 20260902005039 | 85 | 193 | 1.0 | 4.0 | 0.00 | 0.05 | 0.05 | 79 | 1014.8 |
| 20260902004538 | 86 | 188 | 3.0 | 4.0 | 0.00 | 0.05 | 0.05 | 78 | 1014.8 |
| 20260902004033 | 86 | 191 | 2.0 | 3.0 | 0.00 | 0.05 | 0.05 | 78 | 1014.9 |
| 20260902003529 | 86 | 185 | 3.0 | 4.0 | 0.00 | 0.05 | 0.05 | 77 | 1014.7 |
| 20260902003024 | 87 | 242 | 0.0 | 3.0 | 0.00 | 0.05 | 0.05 | 76 | 1014.9 |
| 20260902002520 | 87 | 214 | 2.0 | 5.0 | 0.00 | 0.05 | 0.05 | 75 | 1014.9 |
| 20260902002015 | 87 | 223 | 2.0 | 4.0 | 0.00 | 0.05 | 0.05 | 75 | 1014.8 |
| 20260902001509 | 88 | 206 | 2.0 | 3.0 | 0.00 | 0.05 | 0.05 | 74 | 1014.8 |
| 20260902001004 | 88 | 218 | 0.0 | 3.0 | 0.00 | 0.05 | 0.05 | 74 | 1014.9 |
| 20260902000459 | 89 | 227 | 3.0 | 5.0 | 0.00 | 0.05 | 0.05 | 72 | 1014.7 |
| 20260901235954 | 89 | 200 | 3.0 | 6.0 | 0.00 | 0.05 | 0.05 | 71 | 1014.8 |
| 20260901235448 | 89 | 199 | 1.0 | 4.0 | 0.00 | 0.05 | 0.05 | 71 | 1014.8 |
| 20260901234944 | 90 | 221 | 2.0 | 4.0 | 0.00 | 0.05 | 0.05 | 70 | 1014.8 |
| 20260901234438 | 90 | 223 | 2.0 | 4.0 | 0.00 | 0.05 | 0.05 | 70 | 1015.0 |
| 20260901233933 | 91 | 224 | 3.0 | 4.0 | 0.00 | 0.05 | 0.05 | 69 | 1015.0 |
| 20260901233428 | 91 | 228 | 2.0 | 5.0 | 0.00 | 0.05 | 0.05 | 69 | 1015.0 |
| 20260901232925 | 91 | 237 | 3.0 | 5.0 | 0.00 | 0.05 | 0.05 | 68 | 1015.0 |
| 20260901232425 | 91 | 212 | 3.0 | 5.0 | 0.00 | 0.05 | 0.05 | 68 | 1014.9 |
| 20260901231920 | 92 | 191 | 5.0 | 7.0 | 0.00 | 0.05 | 0.05 | 67 | 1014.9 |
| 20260901231416 | 92 | 204 | 2.0 | 6.0 | 0.00 | 0.05 | 0.05 | 67 | 1015.0 |
| 20260901230912 | 92 | 225 | 3.0 | 5.0 | 0.00 | 0.05 | 0.05 | 67 | 1015.0 |
| 20260901230412 | 93 | 182 | 4.0 | 7.0 | 0.00 | 0.05 | 0.05 | 65 | 1014.9 |
| 20260901225907 | 93 | 207 | 5.0 | 9.0 | 0.00 | 0.05 | 0.05 | 65 | 1014.9 |
| 20260901225406 | 93 | 222 | 3.0 | 6.0 | 0.00 | 0.05 | 0.05 | 66 | 1015.0 |
| 20260901224902 | 93 | 202 | 3.0 | 7.0 | 0.00 | 0.05 | 0.05 | 65 | 1015.0 |
| 20260901224358 | 93 | 241 | 3.0 | 9.0 | 0.00 | 0.05 | 0.05 | 65 | 1015.0 |
| 20260901223854 | 93 | 222 | 3.0 | 8.0 | 0.00 | 0.05 | 0.05 | 66 | 1014.9 |
| 20260901223349 | 93 | 212 | 5.0 | 7.0 | 0.00 | 0.05 | 0.05 | 66 | 1015.1 |
| 20260901222845 | 93 | 233 | 3.0 | 8.0 | 0.00 | 0.05 | 0.05 | 66 | 1015.0 |
| 20260901222341 | 94 | 243 | 3.0 | 7.0 | 0.00 | 0.05 | 0.05 | 66 | 1014.9 |
| 20260901221837 | 94 | 231 | 2.0 | 4.0 | 0.00 | 0.05 | 0.05 | 65 | 1015.0 |